Location: Gouvernes
(48.8601°N, 2.6907°E)
Time: 16:15:32
(UTC+00:00)

Cosmos 405 - Pass Details

Date: 16 October 2021
Orbit: 445 x 455 km, 81.3° (Epoch: 28 November)

Event Time Altitude Azimuth Distance (km) Brightness Sun altitude
Rises 17:35:11 0° 192° (SSW) 2,439 6.9 -7.0°
Reaches altitude 10° 17:37:14 10° 193° (SSW) 1,571 5.9 -7.3°
Maximum altitude 17:40:40 83° 281° (W) 457 3.0 -7.9°
Drops below altitude 10° 17:44:07 10° 10° (N) 1,581 5.5 -8.4°
Sets 17:46:11 0° 11° (NNE) 2,457 6.5 -8.8°
